Location: Wiesbaden
(50.0830°N, 8.2500°E)
Time: 07:00:46
(UTC+02:00)

ISS - Pass Details

Date: 23 May 2019
Orbit: 408 x 418 km, 51.6° (Epoch: 27 May)

Event Time Altitude Azimuth Distance (km) Brightness Sun altitude
Rises 00:15:41 0° 279° (W) 2,356 0.4 -17.9°
Reaches altitude 10° 00:17:48 10° 282° (WNW) 1,495 -0.6 -18.0°
Maximum altitude 00:21:08 67° 5° (N) 456 -3.5 -18.1°
Enters shadow 00:23:35 17° 87° (E) 1,137 -1.7 -18.2°
